Weather reports worldwide

Advertisment
Newton Rigg, United Kingdom (99152): temperature & dewpoint: 20.03.2019 07:00:00 - 26.03.2019 07:00:00 (GMT)Newton Rigg, United Kingdom (99152): temperature -20cm & temperature -100cm: 20.03.2019 07:00:00 - 26.03.2019 07:00:00 (GMT)Newton Rigg, United Kingdom (99152): precipitation: 20.03.2019 07:00:00 - 26.03.2019 07:00:00 (GMT)
Date & Time tt [°C] td [°C] tt -20cm [°C] tt -100cm [°C] rr [mm]
26.03.2019 07:00:00 - - - - -
26.03.2019 06:00:00 6,7 3,4 - - 0,0
26.03.2019 05:00:00 6,7 3,9 - - 0,0
26.03.2019 04:00:00 6,4 4,1 - - 0,0
26.03.2019 03:00:00 5,8 3,2 - - 0,0
26.03.2019 02:00:00 5,6 2,9 - - 0,0
26.03.2019 01:00:00 5,3 2,5 - - 0,0
26.03.2019 00:00:00 5,7 2,5 - - 0,0
25.03.2019 23:00:00 5,6 2,3 - - 0,0
25.03.2019 22:00:00 6,2 2,4 - - 0,0
25.03.2019 21:00:00 4,2 1,6 - - 0,0
25.03.2019 20:00:00 5,6 1,8 - - 0,0
25.03.2019 19:00:00 6,8 2,5 - - 0,0
25.03.2019 18:00:00 8,3 1,3 - - 0,0
25.03.2019 17:00:00 9,9 1,1 - - 0,0
25.03.2019 16:00:00 9,8 0,4 - - 0,0
25.03.2019 15:00:00 10,5 1,7 - - 0,0
25.03.2019 14:00:00 10,5 1,6 - - 0,0
25.03.2019 13:00:00 10,2 1,4 - - 0,0
25.03.2019 12:00:00 9,7 1,0 - - 0,0
25.03.2019 11:00:00 8,1 -0,1 - - 0,0
25.03.2019 10:00:00 7,8 1,1 - - 0,0
25.03.2019 09:00:00 6,6 1,3 7,2 7,4 0,0
25.03.2019 08:00:00 5,1 1,1 - - 0,0
25.03.2019 07:00:00 3,4 0,7 - - 0,0
25.03.2019 06:00:00 3,0 0,6 - - 0,0
25.03.2019 05:00:00 2,9 0,7 - - 0,0
25.03.2019 04:00:00 3,3 0,2 - - 0,0
25.03.2019 03:00:00 3,8 0,3 - - 0,0
25.03.2019 02:00:00 3,5 0,2 - - 0,0
25.03.2019 01:00:00 3,7 0,4 - - 0,0
25.03.2019 00:00:00 4,0 0,8 - - 0,0
24.03.2019 23:00:00 4,2 1,3 - - 0,2
24.03.2019 22:00:00 4,8 2,2 - - 0,0
24.03.2019 21:00:00 5,2 2,4 - - 0,0
24.03.2019 20:00:00 5,7 2,2 - - 0,0
24.03.2019 19:00:00 5,7 3,4 - - 1,0
24.03.2019 18:00:00 6,8 4,1 - - 0,2
24.03.2019 17:00:00 7,2 4,0 - - 0,4
24.03.2019 16:00:00 8,4 4,6 - - 0,0
24.03.2019 15:00:00 7,0 4,6 - - 0,6
24.03.2019 14:00:00 8,1 3,3 - - 0,0
24.03.2019 13:00:00 7,8 2,8 - - 0,0
24.03.2019 12:00:00 8,9 3,8 - - 0,0
24.03.2019 11:00:00 7,9 1,8 - - 0,0
24.03.2019 10:00:00 7,0 1,9 - - 0,0
24.03.2019 09:00:00 6,0 1,0 7,7 7,4 0,0
24.03.2019 08:00:00 5,6 0,6 - - 0,0
24.03.2019 07:00:00 4,5 0,0 - - 0,0
24.03.2019 06:00:00 4,5 1,0 - - 0,0
24.03.2019 05:00:00 4,7 1,7 - - 0,0
24.03.2019 04:00:00 2,4 0,2 - - 0,0
24.03.2019 03:00:00 3,6 0,5 - - 0,0
24.03.2019 02:00:00 4,1 0,2 - - 0,0
24.03.2019 01:00:00 4,2 0,4 - - 0,0
24.03.2019 00:00:00 4,5 0,8 - - 0,0
23.03.2019 23:00:00 4,0 1,0 - - 0,0
23.03.2019 22:00:00 4,3 1,4 - - 0,0
23.03.2019 21:00:00 4,6 1,5 - - 0,0
23.03.2019 20:00:00 5,0 1,6 - - 0,0
23.03.2019 19:00:00 5,5 1,8 - - 0,0
23.03.2019 18:00:00 6,3 2,3 - - 0,0
23.03.2019 17:00:00 7,3 1,5 - - 0,0
23.03.2019 16:00:00 8,6 1,2 - - 0,0
23.03.2019 15:00:00 8,2 0,4 - - 0,0
23.03.2019 14:00:00 7,8 1,1 - - 0,0
23.03.2019 13:00:00 8,1 1,0 - - 0,0
23.03.2019 12:00:00 8,2 1,1 - - 0,0
23.03.2019 11:00:00 7,8 1,0 - - 0,0
23.03.2019 10:00:00 7,7 2,2 - - 0,0
23.03.2019 09:00:00 6,1 1,6 7,7 7,2 0,0
23.03.2019 08:00:00 4,9 1,2 - - 0,0
23.03.2019 07:00:00 3,3 0,8 - - 0,0
23.03.2019 06:00:00 2,9 0,3 - - 0,0
23.03.2019 05:00:00 3,8 0,3 - - 0,0
23.03.2019 04:00:00 4,1 0,5 - - 0,0
23.03.2019 03:00:00 4,7 0,7 - - 0,0
23.03.2019 02:00:00 4,6 0,7 - - 0,0
23.03.2019 01:00:00 5,1 1,7 - - 0,0
23.03.2019 00:00:00 5,3 1,5 - - 0,0
22.03.2019 23:00:00 6,0 2,0 - - 0,0
22.03.2019 22:00:00 6,6 2,2 - - 0,0
22.03.2019 21:00:00 7,6 3,3 - - 0,0
22.03.2019 20:00:00 8,1 4,4 - - 0,0
22.03.2019 19:00:00 8,0 5,1 - - 0,0
22.03.2019 18:00:00 8,1 6,9 - - 0,2
22.03.2019 17:00:00 9,3 8,1 - - 0,4
22.03.2019 16:00:00 9,5 7,4 - - 0,2
22.03.2019 15:00:00 9,5 7,4 - - 0,0
22.03.2019 14:00:00 8,7 7,2 - - 0,0
22.03.2019 13:00:00 9,1 6,0 - - 0,0
22.03.2019 12:00:00 9,2 6,3 - - 0,0
22.03.2019 11:00:00 9,5 5,5 - - 0,0
22.03.2019 10:00:00 9,1 5,7 - - 0,0
22.03.2019 09:00:00 9,7 6,4 7,9 7,0 0,0
22.03.2019 08:00:00 9,9 6,9 - - 0,0
22.03.2019 07:00:00 9,6 7,4 - - 0,0
22.03.2019 06:00:00 9,2 7,7 - - 0,0
22.03.2019 05:00:00 9,1 7,6 - - 0,0
22.03.2019 04:00:00 9,4 7,6 - - 0,0
22.03.2019 03:00:00 9,5 7,4 - - 0,0
22.03.2019 02:00:00 9,6 7,5 - - 0,0
22.03.2019 01:00:00 10,0 7,5 - - 0,0
22.03.2019 00:00:00 10,1 7,6 - - 0,0
21.03.2019 23:00:00 9,3 7,6 - - 0,0
21.03.2019 22:00:00 6,8 6,1 - - 0,0
21.03.2019 21:00:00 7,7 6,5 - - 0,0
21.03.2019 20:00:00 9,6 7,3 - - 0,0
21.03.2019 19:00:00 10,0 7,9 - - 0,0
21.03.2019 18:00:00 10,8 8,2 - - 0,0
21.03.2019 17:00:00 11,3 8,8 - - 0,0
21.03.2019 16:00:00 12,3 9,0 - - 0,0
21.03.2019 15:00:00 14,5 9,7 - - 0,0
21.03.2019 14:00:00 14,3 9,3 - - 0,0
21.03.2019 13:00:00 14,1 9,2 - - 0,0
21.03.2019 12:00:00 12,9 9,0 - - 0,0
21.03.2019 11:00:00 12,2 8,5 - - 0,0
21.03.2019 10:00:00 11,1 8,0 - - 0,0
21.03.2019 09:00:00 10,9 8,1 7,5 6,9 0,0
21.03.2019 08:00:00 10,5 8,3 - - 0,0
21.03.2019 07:00:00 10,2 7,9 - - 0,0
21.03.2019 06:00:00 9,8 7,4 - - 0,0
21.03.2019 05:00:00 9,9 7,4 - - 0,0
21.03.2019 04:00:00 10,3 7,4 - - 0,0
21.03.2019 03:00:00 9,8 7,9 - - 0,0
21.03.2019 02:00:00 10,3 8,5 - - 0,0
21.03.2019 01:00:00 9,1 8,1 - - 0,0
21.03.2019 00:00:00 9,1 8,5 - - 0,2
20.03.2019 23:00:00 9,1 8,0 - - 0,0
20.03.2019 22:00:00 9,4 7,9 - - 0,0
20.03.2019 21:00:00 9,5 8,0 - - 0,0
20.03.2019 20:00:00 9,6 7,7 - - 0,0
20.03.2019 19:00:00 9,9 8,3 - - 0,0
20.03.2019 18:00:00 9,5 8,2 - - 0,0
20.03.2019 17:00:00 10,9 8,7 - - 0,0
20.03.2019 16:00:00 11,5 9,0 - - 0,0
20.03.2019 15:00:00 11,5 9,1 - - 0,0
20.03.2019 14:00:00 11,8 9,2 - - 0,0
20.03.2019 13:00:00 12,8 9,7 - - 0,0
20.03.2019 12:00:00 13,9 9,8 - - 0,0
20.03.2019 11:00:00 13,6 9,9 - - 0,0
20.03.2019 10:00:00 10,6 8,6 - - 0,0
20.03.2019 09:00:00 9,1 7,7 6,9 6,7 0,0
20.03.2019 08:00:00 9,2 8,1 - - 0,0
20.03.2019 07:00:00 8,4 7,6 - - 0,0

tt = temperature
td = dewpoint
tt -20cm = temperature -20cm
tt -100cm = temperature -100cm
rr = precipitation

Next stations